"FRM_AIS_EDR_2630.DAT           ",2006-01-29T02:22:33.61 ,"1/0086581349.59220",    0,    0,  305440,"AIS","B1","B2","B1","B2","PISd",0,0,0,0,"B1", 0,15,   0, 0,    0,"AIS","N/A    ","OK ","OK ",    001322.208,    -008.920,    0017.252,    0020.471,    0126.823
"FRM_AIS_EDR_2630.DAT           ",2006-01-29T02:22:41.16 ,"1/0086581357.29284",    0,    1,  305440,"AIS","B1","B2","B1","B2","PISd",0,0,0,0,"B1", 0,15,   0, 0,    0,"AIS","N/A    ","OK ","OK ",    001311.349,    -009.226,    0017.239,    0020.472,    0126.814
"FRM_AIS_EDR_2630.DAT           ",2006-01-29T02:22:48.70 ,"1/0086581364.64883",    0,    2,  305440,"AIS","B1","B2","B1","B2","PISd",0,0,0,0,"B1", 0,15,   0, 0,    0,"AIS","N/A    ","OK ","OK ",    001300.517,    -009.532,    0017.227,    0020.473,    0126.805
"FRM_AIS_EDR_2630.DAT           ",2006-01-29T02:22:56.24 ,"1/0086581372.34947",    0,    3,  305440,"AIS","B1","B2","B1","B2","PISd",0,0,0,0,"B1", 0,15,   0, 0,    0,"AIS","N/A    ","OK ","OK ",    001289.710,    -009.840,    0017.216,    0020.475,    0126.794
"FRM_AIS_EDR_2630.DAT           ",2006-01-29T02:23:03.79 ,"1/0086581380.05010",    0,    4,  305440,"AIS","B1","B2","B1","B2","PISd",0,0,0,0,"B1", 0,15,   0, 0,    0,"AIS","N/A    ","OK ","OK ",    001278.930,    -010.150,    0017.204,    0020.476,    0126.781
"FRM_AIS_EDR_2630.DAT           ",2006-01-29T02:23:11.33 ,"1/0086581387.40609",    0,    5,  305440,"AIS","B1","B2","B1","B2","PISd",0,0,0,0,"B1", 0,15,   0, 0,    0,"AIS","N/A    ","OK ","OK ",    001268.178,    -010.461,    0017.192,    0020.477,    0126.767
"FRM_AIS_EDR_2630.DAT           ",2006-01-29T02:23:18.87 ,"1/0086581395.10673",    0,    6,  305440,"AIS","B1","B2","B1","B2","PISd",0,0,0,0,"B1", 0,15,   0, 0,    0,"AIS","N/A    ","OK ","OK ",    001257.453,    -010.773,    0017.181,    0020.478,    0126.752
"FRM_AIS_EDR_2630.DAT           ",2006-01-29T02:23:26.42 ,"1/0086581402.46272",    0,    7,  305440,"AIS","B1","B2","B1","B2","PISd",0,0,0,0,"B1", 0,15,   0, 0,    0,"AIS","N/A    ","OK ","OK ",    001246.755,    -011.087,    0017.169,    0020.480,    0126.736
"FRM_AIS_EDR_2630.DAT           ",2006-01-29T02:23:33.96 ,"1/0086581410.16335",    0,    8,  305440,"AIS","B1","B2","B1","B2","PISd",0,0,0,0,"B1", 0,15,   0, 0,    0,"AIS","N/A    ","OK ","OK ",    001236.087,    -011.402,    0017.158,    0020.481,    0126.718
"FRM_AIS_EDR_2630.DAT           ",2006-01-29T02:23:41.50 ,"1/0086581417.51935",    0,    9,  305440,"AIS","B1","B2","B1","B2","PISd",0,0,0,0,"B1", 0,15,   0, 0,    0,"AIS","N/A    ","OK ","OK ",    001225.447,    -011.719,    0017.147,    0020.482,    0126.698
"FRM_AIS_EDR_2630.DAT           ",2006-01-29T02:23:49.04 ,"1/0086581425.21998",    0,   10,  305440,"AIS","B1","B2","B1","B2","PISd",0,0,0,0,"B1", 0,15,   0, 0,    0,"AIS","N/A    ","OK ","OK ",    001214.837,    -012.037,    0017.136,    0020.484,    0126.678
"FRM_AIS_EDR_2630.DAT           ",2006-01-29T02:23:56.59 ,"1/0086581432.57598",    0,   11,  305440,"AIS","B1","B2","B1","B2","PISd",0,0,0,0,"B1", 0,15,   0, 0,    0,"AIS","N/A    ","OK ","OK ",    001204.257,    -012.357,    0017.125,    0020.485,    0126.655
"FRM_AIS_EDR_2630.DAT           ",2006-01-29T02:24:04.13 ,"1/0086581440.27661",    0,   12,  305440,"AIS","B1","B2","B1","B2","PISd",0,0,0,0,"B1", 0,15,   0, 0,    0,"AIS","N/A    ","OK ","OK ",    001193.707,    -012.678,    0017.114,    0020.486,    0126.632
"FRM_AIS_EDR_2630.DAT           ",2006-01-29T02:24:11.67 ,"1/0086581447.63260",    0,   13,  305440,"AIS","B1","B2","B1","B2","PISd",0,0,0,0,"B1", 0,15,   0, 0,    0,"AIS","N/A    ","OK ","OK ",    001183.188,    -013.001,    0017.104,    0020.488,    0126.607
"FRM_AIS_EDR_2630.DAT           ",2006-01-29T02:24:19.22 ,"1/0086581455.33324",    0,   14,  305440,"AIS","B1","B2","B1","B2","PISd",0,0,0,0,"B1", 0,15,   0, 0,    0,"AIS","N/A    ","OK ","OK ",    001172.700,    -013.325,    0017.093,    0020.489,    0126.580
"FRM_AIS_EDR_2630.DAT           ",2006-01-29T02:24:26.76 ,"1/0086581463.03387",    0,   15,  305440,"AIS","B1","B2","B1","B2","PISd",0,0,0,0,"B1", 0,15,   0, 0,    0,"AIS","N/A    ","OK ","OK ",    001162.244,    -013.650,    0017.083,    0020.490,    0126.552
"FRM_AIS_EDR_2630.DAT           ",2006-01-29T02:24:34.30 ,"1/0086581470.38987",    0,   16,  305440,"AIS","B1","B2","B1","B2","PISd",0,0,0,0,"B1", 0,15,   0, 0,    0,"AIS","N/A    ","OK ","OK ",    001151.820,    -013.977,    0017.073,    0020.492,    0126.522
"FRM_AIS_EDR_2630.DAT           ",2006-01-29T02:24:41.85 ,"1/0086581478.09050",    0,   17,  305440,"AIS","B1","B2","B1","B2","PISd",0,0,0,0,"B1", 0,15,   0, 0,    0,"AIS","N/A    ","OK ","OK ",    001141.430,    -014.306,    0017.063,    0020.493,    0126.491
"FRM_AIS_EDR_2630.DAT           ",2006-01-29T02:24:49.39 ,"1/0086581485.44649",    0,   18,  305440,"AIS","B1","B2","B1","B2","PISd",0,0,0,0,"B1", 0,15,   0, 0,    0,"AIS","N/A    ","OK ","OK ",    001131.072,    -014.636,    0017.053,    0020.494,    0126.458
"FRM_AIS_EDR_2630.DAT           ",2006-01-29T02:24:56.93 ,"1/0086581493.14713",    0,   19,  305440,"AIS","B1","B2","B1","B2","PISd",0,0,0,0,"B1", 0,15,   0, 0,    0,"AIS","N/A    ","OK ","OK ",    001120.748,    -014.968,    0017.043,    0020.496,    0126.424
"FRM_AIS_EDR_2630.DAT           ",2006-01-29T02:25:04.48 ,"1/0086581500.50312",    0,   20,  305440,"AIS","B1","B2","B1","B2","PISd",0,0,0,0,"B1", 0,15,   0, 0,    0,"AIS","N/A    ","OK ","OK ",    001110.459,    -015.301,    0017.034,    0020.497,    0126.388
"FRM_AIS_EDR_2630.DAT           ",2006-01-29T02:25:12.02 ,"1/0086581508.20375",    0,   21,  305440,"AIS","B1","B2","B1","B2","PISd",0,0,0,0,"B1", 0,15,   0, 0,    0,"AIS","N/A    ","OK ","OK ",    001100.204,    -015.636,    0017.024,    0020.499,    0126.350
"FRM_AIS_EDR_2630.DAT           ",2006-01-29T02:25:19.56 ,"1/0086581515.55975",    0,   22,  305440,"AIS","B1","B2","B1","B2","PISd",0,0,0,0,"B1", 0,15,   0, 0,    0,"AIS","N/A    ","OK ","OK ",    001089.985,    -015.972,    0017.015,    0020.500,    0126.311
"FRM_AIS_EDR_2630.DAT           ",2006-01-29T02:25:27.11 ,"1/0086581523.26038",    0,   23,  305440,"AIS","B1","B2","B1","B2","PISd",0,0,0,0,"B1", 0,15,   0, 0,    0,"AIS","N/A    ","OK ","OK ",    001079.802,    -016.310,    0017.006,    0020.501,    0126.270
"FRM_AIS_EDR_2630.DAT           ",2006-01-29T02:25:34.65 ,"1/0086581530.61638",    0,   24,  305440,"AIS","B1","B2","B1","B2","PISd",0,0,0,0,"B1", 0,15,   0, 0,    0,"AIS","N/A    ","OK ","OK ",    001069.655,    -016.649,    0016.997,    0020.503,    0126.227
"FRM_AIS_EDR_2630.DAT           ",2006-01-29T02:25:42.19 ,"1/0086581538.31701",    0,   25,  305440,"AIS","B1","B2","B1","B2","PISd",0,0,0,0,"B1", 0,15,   0, 0,    0,"AIS","N/A    ","OK ","OK ",    001059.545,    -016.990,    0016.989,    0020.504,    0126.183
"FRM_AIS_EDR_2630.DAT           ",2006-01-29T02:25:49.74 ,"1/0086581546.01764",    0,   26,  305440,"AIS","B1","B2","B1","B2","PISd",0,0,0,0,"B1", 0,15,   0, 0,    0,"AIS","N/A    ","OK ","OK ",    001049.472,    -017.332,    0016.980,    0020.506,    0126.137
"FRM_AIS_EDR_2630.DAT           ",2006-01-29T02:25:57.28 ,"1/0086581553.37364",    0,   27,  305440,"AIS","B1","B2","B1","B2","PISd",0,0,0,0,"B1", 0,15,   0, 0,    0,"AIS","N/A    ","OK ","OK ",    001039.438,    -017.676,    0016.972,    0020.507,    0126.089
"FRM_AIS_EDR_2630.DAT           ",2006-01-29T02:26:04.82 ,"1/0086581561.07427",    0,   28,  305440,"AIS","B1","B2","B1","B2","PISd",0,0,0,0,"B1", 0,15,   0, 0,    0,"AIS","N/A    ","OK ","OK ",    001029.441,    -018.022,    0016.964,    0020.509,    0126.040
"FRM_AIS_EDR_2630.DAT           ",2006-01-29T02:26:12.37 ,"1/0086581568.43026",    0,   29,  305440,"AIS","B1","B2","B1","B2","PISd",0,0,0,0,"B1", 0,15,   0, 0,    0,"AIS","N/A    ","OK ","OK ",    001019.484,    -018.369,    0016.956,    0020.510,    0125.989
"FRM_AIS_EDR_2630.DAT           ",2006-01-29T02:26:19.91 ,"1/0086581576.13090",    0,   30,  305440,"AIS","B1","B2","B1","B2","PISd",0,0,0,0,"B1", 0,15,   0, 0,    0,"AIS","N/A    ","OK ","OK ",    001009.567,    -018.717,    0016.948,    0020.512,    0125.936
"FRM_AIS_EDR_2630.DAT           ",2006-01-29T02:26:27.45 ,"1/0086581583.48689",    0,   31,  305440,"AIS","B1","B2","B1","B2","PISd",0,0,0,0,"B1", 0,15,   0, 0,    0,"AIS","N/A    ","OK ","OK ",    000999.690,    -019.068,    0016.941,    0020.513,    0125.881
"FRM_AIS_EDR_2630.DAT           ",2006-01-29T02:26:35.00 ,"1/0086581591.18753",    0,   32,  305440,"AIS","B1","B2","B1","B2","PISd",0,0,0,0,"B1", 0,15,   0, 0,    0,"AIS","N/A    ","OK ","OK ",    000989.853,    -019.420,    0016.934,    0020.515,    0125.825
"FRM_AIS_EDR_2630.DAT           ",2006-01-29T02:26:42.54 ,"1/0086581598.54352",    0,   33,  305440,"AIS","B1","B2","B1","B2","PISd",0,0,0,0,"B1", 0,15,   0, 0,    0,"AIS","N/A    ","OK ","OK ",    000980.058,    -019.773,    0016.926,    0020.517,    0125.766
"FRM_AIS_EDR_2630.DAT           ",2006-01-29T02:26:50.08 ,"1/0086581606.24415",    0,   34,  305440,"AIS","B1","B2","B1","B2","PISd",0,0,0,0,"B1", 0,15,   0, 0,    0,"AIS","N/A    ","OK ","OK ",    000970.305,    -020.128,    0016.920,    0020.518,    0125.706
"FRM_AIS_EDR_2630.DAT           ",2006-01-29T02:26:57.63 ,"1/0086581613.60015",    0,   35,  305440,"AIS","B1","B2","B1","B2","PISd",0,0,0,0,"B1", 0,15,   0, 0,    0,"AIS","N/A    ","OK ","OK ",    000960.594,    -020.485,    0016.913,    0020.520,    0125.644
"FRM_AIS_EDR_2630.DAT           ",2006-01-29T02:27:05.17 ,"1/0086581621.30078",    0,   36,  305440,"AIS","B1","B2","B1","B2","PISd",0,0,0,0,"B1", 0,15,   0, 0,    0,"AIS","N/A    ","OK ","OK ",    000950.926,    -020.843,    0016.906,    0020.521,    0125.580
"FRM_AIS_EDR_2630.DAT           ",2006-01-29T02:27:12.71 ,"1/0086581629.00141",    0,   37,  305440,"AIS","B1","B2","B1","B2","PISd",0,0,0,0,"B1", 0,15,   0, 0,    0,"AIS","N/A    ","OK ","OK ",    000941.301,    -021.203,    0016.900,    0020.523,    0125.515
"FRM_AIS_EDR_2630.DAT           ",2006-01-29T02:27:20.25 ,"1/0086581636.35741",    0,   38,  305440,"AIS","B1","B2","B1","B2","PISd",0,0,0,0,"B1", 0,15,   0, 0,    0,"AIS","N/A    ","OK ","OK ",    000931.721,    -021.564,    0016.894,    0020.525,    0125.447
"FRM_AIS_EDR_2630.DAT           ",2006-01-29T02:27:27.80 ,"1/0086581644.05804",    0,   39,  305440,"AIS","B1","B2","B1","B2","PISd",0,0,0,0,"B1", 0,15,   0, 0,    0,"AIS","N/A    ","OK ","OK ",    000922.185,    -021.927,    0016.888,    0020.526,    0125.378
"FRM_AIS_EDR_2630.DAT           ",2006-01-29T02:27:35.34 ,"1/0086581651.41404",    0,   40,  305440,"AIS","B1","B2","B1","B2","PISd",0,0,0,0,"B1", 0,15,   0, 0,    0,"AIS","N/A    ","OK ","OK ",    000912.695,    -022.292,    0016.883,    0020.528,    0125.306
"FRM_AIS_EDR_2630.DAT           ",2006-01-29T02:27:42.88 ,"1/0086581659.11467",    0,   41,  305440,"AIS","B1","B2","B1","B2","PISd",0,0,0,0,"B1", 0,15,   0, 0,    0,"AIS","N/A    ","OK ","OK ",    000903.251,    -022.658,    0016.878,    0020.530,    0125.233
"FRM_AIS_EDR_2630.DAT           ",2006-01-29T02:27:50.43 ,"1/0086581666.47066",    0,   42,  305440,"AIS","B1","B2","B1","B2","PISd",0,0,0,0,"B1", 0,15,   0, 0,    0,"AIS","N/A    ","OK ","OK ",    000893.853,    -023.026,    0016.873,    0020.531,    0125.157
"FRM_AIS_EDR_2630.DAT           ",2006-01-29T02:27:57.97 ,"1/0086581674.17130",    0,   43,  305440,"AIS","B1","B2","B1","B2","PISd",0,0,0,0,"B1", 0,15,   0, 0,    0,"AIS","N/A    ","OK ","OK ",    000884.502,    -023.395,    0016.868,    0020.533,    0125.080
"FRM_AIS_EDR_2630.DAT           ",2006-01-29T02:28:05.51 ,"1/0086581681.52729",    0,   44,  305440,"AIS","B1","B2","B1","B2","PISd",0,0,0,0,"B1", 0,15,   0, 0,    0,"AIS","N/A    ","OK ","OK ",    000875.199,    -023.766,    0016.863,    0020.535,    0125.001
"FRM_AIS_EDR_2630.DAT           ",2006-01-29T02:28:13.06 ,"1/0086581689.22792",    0,   45,  305440,"AIS","B1","B2","B1","B2","PISd",0,0,0,0,"B1", 0,15,   0, 0,    0,"AIS","N/A    ","OK ","OK ",    000865.944,    -024.139,    0016.859,    0020.537,    0124.920
"FRM_AIS_EDR_2630.DAT           ",2006-01-29T02:28:20.60 ,"1/0086581696.58392",    0,   46,  305440,"AIS","B1","B2","B1","B2","PISd",0,0,0,0,"B1", 0,15,   0, 0,    0,"AIS","N/A    ","OK ","OK ",    000856.738,    -024.514,    0016.855,    0020.538,    0124.836
"FRM_AIS_EDR_2630.DAT           ",2006-01-29T02:28:28.14 ,"1/0086581704.28455",    0,   47,  305440,"AIS","B1","B2","B1","B2","PISd",0,0,0,0,"B1", 0,15,   0, 0,    0,"AIS","N/A    ","OK ","OK ",    000847.581,    -024.890,    0016.851,    0020.540,    0124.751
"FRM_AIS_EDR_2630.DAT           ",2006-01-29T02:28:35.69 ,"1/0086581711.64054",    0,   48,  305440,"AIS","B1","B2","B1","B2","PISd",0,0,0,0,"B1", 0,15,   0, 0,    0,"AIS","N/A    ","OK ","OK ",    000838.475,    -025.267,    0016.848,    0020.542,    0124.664
"FRM_AIS_EDR_2630.DAT           ",2006-01-29T02:28:43.23 ,"1/0086581719.34118",    0,   49,  305440,"AIS","B1","B2","B1","B2","PISd",0,0,0,0,"B1", 0,15,   0, 0,    0,"AIS","N/A    ","OK ","OK ",    000829.419,    -025.646,    0016.845,    0020.544,    0124.575
"FRM_AIS_EDR_2630.DAT           ",2006-01-29T02:28:50.77 ,"1/0086581727.04181",    0,   50,  305440,"AIS","B1","B2","B1","B2","PISd",0,0,0,0,"B1", 0,15,   0, 0,    0,"AIS","N/A    ","OK ","OK ",    000820.414,    -026.027,    0016.842,    0020.546,    0124.483
"FRM_AIS_EDR_2630.DAT           ",2006-01-29T02:28:58.32 ,"1/0086581734.39781",    0,   51,  305440,"AIS","B1","B2","B1","B2","PISd",0,0,0,0,"B1", 0,15,   0, 0,    0,"AIS","N/A    ","OK ","OK ",    000811.462,    -026.410,    0016.840,    0020.547,    0124.390
"FRM_AIS_EDR_2630.DAT           ",2006-01-29T02:29:05.86 ,"1/0086581742.09844",    0,   52,  305440,"AIS","B1","B2","B1","B2","PISd",0,0,0,0,"B1", 0,15,   0, 0,    0,"AIS","N/A    ","OK ","OK ",    000802.562,    -026.794,    0016.837,    0020.549,    0124.294
"FRM_AIS_EDR_2630.DAT           ",2006-01-29T02:29:13.40 ,"1/0086581749.45443",    0,   53,  305440,"AIS","B1","B2","B1","B2","PISd",0,0,0,0,"B1", 0,15,   0, 0,    0,"AIS","N/A    ","OK ","OK ",    000793.715,    -027.180,    0016.835,    0020.551,    0124.197
"FRM_AIS_EDR_2630.DAT           ",2006-01-29T02:29:20.95 ,"1/0086581757.15507",    0,   54,  305440,"AIS","B1","B2","B1","B2","PISd",0,0,0,0,"B1", 0,15,   0, 0,    0,"AIS","N/A    ","OK ","OK ",    000784.922,    -027.567,    0016.834,    0020.553,    0124.097
"FRM_AIS_EDR_2630.DAT           ",2006-01-29T02:29:28.49 ,"1/0086581764.51106",    0,   55,  305440,"AIS","B1","B2","B1","B2","PISd",0,0,0,0,"B1", 0,15,   0, 0,    0,"AIS","N/A    ","OK ","OK ",    000776.183,    -027.957,    0016.833,    0020.555,    0123.995
"FRM_AIS_EDR_2630.DAT           ",2006-01-29T02:29:36.03 ,"1/0086581772.21169",    0,   56,  305440,"AIS","B1","B2","B1","B2","PISd",0,0,0,0,"B1", 0,15,   0, 0,    0,"AIS","N/A    ","OK ","OK ",    000767.500,    -028.347,    0016.832,    0020.557,    0123.891
"FRM_AIS_EDR_2630.DAT           ",2006-01-29T02:29:43.58 ,"1/0086581779.56769",    0,   57,  305440,"AIS","B1","B2","B1","B2","PISd",0,0,0,0,"B1", 0,15,   0, 0,    0,"AIS","N/A    ","OK ","OK ",    000758.872,    -028.740,    0016.831,    0020.559,    0123.785
"FRM_AIS_EDR_2630.DAT           ",2006-01-29T02:29:51.12 ,"1/0086581787.26832",    0,   58,  305440,"AIS","B1","B2","B1","B2","PISd",0,0,0,0,"B1", 0,15,   0, 0,    0,"AIS","N/A    ","OK ","OK ",    000750.300,    -029.134,    0016.831,    0020.561,    0123.677
"FRM_AIS_EDR_2630.DAT           ",2006-01-29T02:29:58.66 ,"1/0086581794.62431",    0,   59,  305440,"AIS","B1","B2","B1","B2","PISd",0,0,0,0,"B1", 0,15,   0, 0,    0,"AIS","N/A    ","OK ","OK ",    000741.785,    -029.529,    0016.831,    0020.563,    0123.567
"FRM_AIS_EDR_2630.DAT           ",2006-01-29T02:30:06.21 ,"1/0086581802.32495",    0,   60,  305440,"AIS","B1","B2","B1","B2","PISd",0,0,0,0,"B1", 0,15,   0, 0,    0,"AIS","N/A    ","OK ","OK ",    000733.328,    -029.927,    0016.832,    0020.565,    0123.454
"FRM_AIS_EDR_2630.DAT           ",2006-01-29T02:30:13.75 ,"1/0086581810.02558",    0,   61,  305440,"AIS","B1","B2","B1","B2","PISd",0,0,0,0,"B1", 0,15,   0, 0,    0,"AIS","N/A    ","OK ","OK ",    000724.929,    -030.326,    0016.833,    0020.567,    0123.340
"FRM_AIS_EDR_2630.DAT           ",2006-01-29T02:30:21.29 ,"1/0086581817.38157",    0,   62,  305440,"AIS","B1","B2","B1","B2","PISd",0,0,0,0,"B1", 0,15,   0, 0,    0,"AIS","N/A    ","OK ","OK ",    000716.589,    -030.726,    0016.834,    0020.569,    0123.223
"FRM_AIS_EDR_2630.DAT           ",2006-01-29T02:30:28.83 ,"1/0086581825.08221",    0,   63,  305440,"AIS","B1","B2","B1","B2","PISd",0,0,0,0,"B1", 0,15,   0, 0,    0,"AIS","N/A    ","OK ","OK ",    000708.309,    -031.128,    0016.836,    0020.572,    0123.104
"FRM_AIS_EDR_2630.DAT           ",2006-01-29T02:30:36.38 ,"1/0086581832.43820",    0,   64,  305440,"AIS","B1","B2","B1","B2","PISd",0,0,0,0,"B1", 0,15,   0, 0,    0,"AIS","N/A    ","OK ","OK ",    000700.088,    -031.532,    0016.838,    0020.574,    0122.983
"FRM_AIS_EDR_2630.DAT           ",2006-01-29T02:30:43.92 ,"1/0086581840.13884",    0,   65,  305440,"AIS","B1","B2","B1","B2","PISd",0,0,0,0,"B1", 0,15,   0, 0,    0,"AIS","N/A    ","OK ","OK ",    000691.929,    -031.938,    0016.840,    0020.576,    0122.860
"FRM_AIS_EDR_2630.DAT           ",2006-01-29T02:30:51.46 ,"1/0086581847.49483",    0,   66,  305440,"AIS","B1","B2","B1","B2","PISd",0,0,0,0,"B1", 0,15,   0, 0,    0,"AIS","N/A    ","OK ","OK ",    000683.831,    -032.345,    0016.843,    0020.578,    0122.734
"FRM_AIS_EDR_2630.DAT           ",2006-01-29T02:30:59.01 ,"1/0086581855.19546",    0,   67,  305440,"AIS","B1","B2","B1","B2","PISd",0,0,0,0,"B1", 0,15,   0, 0,    0,"AIS","N/A    ","OK ","OK ",    000675.795,    -032.754,    0016.847,    0020.581,    0122.606
"FRM_AIS_EDR_2630.DAT           ",2006-01-29T02:31:06.55 ,"1/0086581862.55146",    0,   68,  305440,"AIS","B1","B2","B1","B2","PISd",0,0,0,0,"B1", 0,15,   0, 0,    0,"AIS","N/A    ","OK ","OK ",    000667.821,    -033.164,    0016.850,    0020.583,    0122.476
"FRM_AIS_EDR_2630.DAT           ",2006-01-29T02:31:14.09 ,"1/0086581870.25209",    0,   69,  305440,"AIS","B1","B2","B1","B2","PISd",0,0,0,0,"B1", 0,15,   0, 0,    0,"AIS","N/A    ","OK ","OK ",    000659.912,    -033.576,    0016.855,    0020.585,    0122.344
"FRM_AIS_EDR_2630.DAT           ",2006-01-29T02:31:21.64 ,"1/0086581877.60808",    0,   70,  305440,"AIS","B1","B2","B1","B2","PISd",0,0,0,0,"B1", 0,15,   0, 0,    0,"AIS","N/A    ","OK ","OK ",    000652.066,    -033.990,    0016.860,    0020.587,    0122.210
"FRM_AIS_EDR_2630.DAT           ",2006-01-29T02:31:29.18 ,"1/0086581885.30872",    0,   71,  305440,"AIS","B1","B2","B1","B2","PISd",0,0,0,0,"B1", 0,15,   0, 0,    0,"AIS","N/A    ","OK ","OK ",    000644.284,    -034.405,    0016.865,    0020.590,    0122.073
"FRM_AIS_EDR_2630.DAT           ",2006-01-29T02:31:36.72 ,"1/0086581893.00935",    0,   72,  305440,"AIS","B1","B2","B1","B2","PISd",0,0,0,0,"B1", 0,15,   0, 0,    0,"AIS","N/A    ","OK ","OK ",    000636.569,    -034.822,    0016.871,    0020.593,    0121.934
"FRM_AIS_EDR_2630.DAT           ",2006-01-29T02:31:44.27 ,"1/0086581900.36534",    0,   73,  305440,"AIS","B1","B2","B1","B2","PISd",0,0,0,0,"B1", 0,15,   0, 0,    0,"AIS","N/A    ","OK ","OK ",    000628.919,    -035.240,    0016.877,    0020.595,    0121.793
"FRM_AIS_EDR_2630.DAT           ",2006-01-29T02:31:51.81 ,"1/0086581908.06598",    0,   74,  305440,"AIS","B1","B2","B1","B2","PISd",0,0,0,0,"B1", 0,15,   0, 0,    0,"AIS","N/A    ","OK ","OK ",    000621.335,    -035.660,    0016.884,    0020.597,    0121.650
"FRM_AIS_EDR_2630.DAT           ",2006-01-29T02:31:59.35 ,"1/0086581915.42197",    0,   75,  305440,"AIS","B1","B2","B1","B2","PISd",0,0,0,0,"B1", 0,15,   0, 0,    0,"AIS","N/A    ","OK ","OK ",    000613.819,    -036.082,    0016.891,    0020.600,    0121.504
"FRM_AIS_EDR_2630.DAT           ",2006-01-29T02:32:06.90 ,"1/0086581923.12260",    0,   76,  305440,"AIS","B1","B2","B1","B2","PISd",0,0,0,0,"B1", 0,15,   0, 0,    0,"AIS","N/A    ","OK ","OK ",    000606.371,    -036.505,    0016.899,    0020.602,    0121.357
"FRM_AIS_EDR_2630.DAT           ",2006-01-29T02:32:14.44 ,"1/0086581930.47860",    0,   77,  305440,"AIS","B1","B2","B1","B2","PISd",0,0,0,0,"B1", 0,15,   0, 0,    0,"AIS","N/A    ","OK ","OK ",    000598.992,    -036.930,    0016.908,    0020.605,    0121.207
"FRM_AIS_EDR_2630.DAT           ",2006-01-29T02:32:21.98 ,"1/0086581938.17923",    0,   78,  305440,"AIS","B1","B2","B1","B2","PISd",0,0,0,0,"B1", 0,15,   0, 0,    0,"AIS","N/A    ","OK ","OK ",    000591.681,    -037.357,    0016.917,    0020.608,    0121.055
"FRM_AIS_EDR_2630.DAT           ",2006-01-29T02:32:29.53 ,"1/0086581945.53522",    0,   79,  305440,"AIS","B1","B2","B1","B2","PISd",0,0,0,0,"B1", 0,15,   0, 0,    0,"AIS","N/A    ","OK ","OK ",    000584.441,    -037.785,    0016.926,    0020.610,    0120.900
"FRM_AIS_EDR_2630.DAT           ",2006-01-29T02:32:37.07 ,"1/0086581953.23586",    0,   80,  305440,"AIS","B1","B2","B1","B2","PISd",0,0,0,0,"B1", 0,15,   0, 0,    0,"AIS","N/A    ","OK ","OK ",    000577.271,    -038.214,    0016.937,    0020.613,    0120.743
"FRM_AIS_EDR_2630.DAT           ",2006-01-29T02:32:44.61 ,"1/0086581960.59185",    0,   81,  305440,"AIS","B1","B2","B1","B2","PISd",0,0,0,0,"B1", 0,15,   0, 0,    0,"AIS","N/A    ","OK ","OK ",    000570.172,    -038.645,    0016.948,    0020.616,    0120.584
"FRM_AIS_EDR_2630.DAT           ",2006-01-29T02:32:52.16 ,"1/0086581968.29248",    0,   82,  305440,"AIS","B1","B2","B1","B2","PISd",0,0,0,0,"B1", 0,15,   0, 0,    0,"AIS","N/A    ","OK ","OK ",    000563.145,    -039.078,    0016.959,    0020.619,    0120.423
"FRM_AIS_EDR_2630.DAT           ",2006-01-29T02:32:59.70 ,"1/0086581975.64848",    0,   83,  305440,"AIS","B1","B2","B1","B2","PISd",0,0,0,0,"B1", 0,15,   0, 0,    0,"AIS","N/A    ","OK ","OK ",    000556.190,    -039.512,    0016.972,    0020.622,    0120.260
"FRM_AIS_EDR_2630.DAT           ",2006-01-29T02:33:07.24 ,"1/0086581983.34911",    0,   84,  305440,"AIS","B1","B2","B1","B2","PISd",0,0,0,0,"B1", 0,15,   0, 0,    0,"AIS","N/A    ","OK ","OK ",    000549.309,    -039.948,    0016.985,    0020.624,    0120.094
"FRM_AIS_EDR_2630.DAT           ",2006-01-29T02:33:14.79 ,"1/0086581991.04975",    0,   85,  305440,"AIS","B1","B2","B1","B2","PISd",0,0,0,0,"B1", 0,15,   0, 0,    0,"AIS","N/A    ","OK ","OK ",    000542.501,    -040.385,    0016.998,    0020.628,    0119.926
"FRM_AIS_EDR_2630.DAT           ",2006-01-29T02:33:22.33 ,"1/0086581998.40574",    0,   86,  305440,"AIS","B1","B2","B1","B2","PISd",0,0,0,0,"B1", 0,15,   0, 0,    0,"AIS","N/A    ","OK ","OK ",    000535.767,    -040.824,    0017.013,    0020.630,    0119.756
"FRM_AIS_EDR_2630.DAT           ",2006-01-29T02:33:29.87 ,"1/0086582006.10637",    0,   87,  305440,"AIS","B1","B2","B1","B2","PISd",0,0,0,0,"B1", 0,15,   0, 0,    0,"AIS","N/A    ","OK ","OK ",    000529.109,    -041.264,    0017.028,    0020.633,    0119.584
"FRM_AIS_EDR_2630.DAT           ",2006-01-29T02:33:37.41 ,"1/0086582013.46237",    0,   88,  305440,"AIS","B1","B2","B1","B2","PISd",0,0,0,0,"B1", 0,15,   0, 0,    0,"AIS","N/A    ","OK ","OK ",    000522.526,    -041.706,    0017.044,    0020.637,    0119.410
"FRM_AIS_EDR_2630.DAT           ",2006-01-29T02:33:44.96 ,"1/0086582021.16300",    0,   89,  305440,"AIS","B1","B2","B1","B2","PISd",0,0,0,0,"B1", 0,15,   0, 0,    0,"AIS","N/A    ","OK ","OK ",    000516.019,    -042.150,    0017.061,    0020.640,    0119.233
"FRM_AIS_EDR_2630.DAT           ",2006-01-29T02:33:52.50 ,"1/0086582028.51899",    0,   90,  305440,"AIS","B1","B2","B1","B2","PISd",0,0,0,0,"B1", 0,15,   0, 0,    0,"AIS","N/A    ","OK ","OK ",    000509.589,    -042.594,    0017.079,    0020.643,    0119.054